Terminal Aerodrome Forecast
Issued by NWS

Home | Current Version | Previous Version | Text Only | Print | Product List | Glossary Off
Versions: 1 2 3 4 5 6 7 8 9 10 11 12 13 14 15 16 17 18 19 20

000
FTUS43 KBIS 272000 AAA
TAFDIK
TAF AMD
KDIK 272018Z 2720/2818 34008KT P6SM BKN040
     FM272200 36009KT P6SM SCT040
     FM280600 VRB05KT P6SM SCT050=

USA.gov is the U.S. government's official web portal to all federal, state and local government web resources and services.